Wind_Speed
20 22 24 22 22 22 24 24 26 27 25 24 24 24 24 23 23 23 23 23 23 23 23 23 23 22 22 21 21 21 20 20 20 20 19 19 18 18 18 17 17 16 15 15 15 14 14 14 14 15 15 14 13 13 13 12 13 14 16 17 17 17 16 16 15 15 14 14 15 14 14 13 13 12 12 12 13 14 14 15 16 18 19 19 19
23 25 25 24 22 22 25 24 26 27 24 24 24 24 23 22 23 22 22 22 22 22 22 22 22 22 21 21 21 21 20 20 20 20 19 18 18 18 18 17 16 15 15 15 14 14 14 15 15 15 15 14 14 13 13 13 14 16 17 19 19 18 16 16 16 15 15 15 15 15 13 12 12 12 12 13 13 13 14 15 17 19 20 20 19
26 26 25 24 21 23 25 24 25 26 23 23 23 23 22 22 23 22 22 22 22 22 22 22 21 21 21 20 20 21 21 21 21 20 19 18 18 17 17 17 16 15 15 14 14 14 15 15 16 16 15 15 14 14 14 15 17 18 19 20 19 18 17 16 16 16 16 15 15 14 13 12 12 12 12 13 14 14 15 16 18 20 21 21 20
27 25 24 21 21 24 24 24 25 26 23 22 23 22 22 22 23 22 22 22 22 22 21 21 21 21 21 20 21 21 21 21 20 20 19 18 17 16 16 16 16 15 14 14 14 14 15 15 16 15 15 15 14 14 15 17 18 18 19 19 18 17 16 16 16 15 15 15 14 15 14 13 13 12 13 14 14 15 16 17 19 21 21 21 20
27 25 24 22 24 26 24 24 25 26 23 22 23 22 23 22 22 22 22 22 21 21 21 21 21 21 20 20 21 20 20 20 19 18 18 18 17 17 15 15 15 15 14 14 14 14 15 15 15 15 15 15 15 15 16 17 17 17 17 17 17 16 16 16 15 15 15 15 15 16 15 15 14 13 14 14 15 15 17 18 19 20 20 20 19
28 26 25 25 27 26 25 24 25 25 23 22 23 22 22 22 22 22 22 22 21 21 20 20 20 20 19 19 19 19 19 19 18 17 17 17 17 17 15 15 15 15 14 14 14 14 14 14 15 16 15 15 16 16 16 17 16 16 17 17 16 16 16 15 15 15 15 16 16 16 16 16 15 14 14 15 15 16 18 18 18 18 18 19 19
28 28 26 27 28 26 25 24 24 25 23 22 22 22 22 22 23 22 22 21 21 21 20 20 20 19 19 18 19 18 18 18 17 16 16 16 16 16 15 15 15 14 14 14 14 14 14 14 15 16 15 15 15 17 17 16 15 15 17 17 16 16 16 15 14 14 15 15 15 16 17 17 16 14 13 15 16 17 17 17 17 18 18 18 19
29 29 28 29 28 26 25 24 25 25 23 23 22 22 22 22 22 21 21 21 21 20 20 19 19 19 18 18 18 18 18 18 17 15 15 15 15 15 15 14 15 14 14 14 14 14 14 14 15 15 15 15 15 16 17 16 15 15 16 16 16 16 16 15 14 14 14 14 14 15 16 16 16 14 13 15 16 16 17 17 18 18 17 17 18
30 29 29 30 28 27 26 25 26 24 23 23 22 22 21 21 21 21 21 20 20 19 19 19 18 18 17 17 17 17 17 17 17 16 16 16 15 14 14 14 14 14 14 14 14 14 13 13 14 15 15 15 15 16 16 16 15 14 14 15 15 15 14 14 14 14 14 14 14 14 15 16 16 15 14 15 15 16 17 17 18 18 17 17 17
30 29 30 29 28 27 26 26 26 24 23 23 22 22 21 21 21 21 20 19 19 19 19 18 18 18 17 17 17 17 16 16 16 16 16 16 15 14 14 14 14 13 13 13 13 13 13 13 14 15 14 15 16 16 16 16 14 14 14 14 15 15 14 14 15 14 14 14 14 14 14 14 15 15 14 14 14 14 16 17 18 17 16 16 17
29 29 30 29 28 26 27 27 26 24 24 23 22 22 21 21 21 20 19 19 19 18 18 18 18 17 17 17 16 16 16 16 16 16 16 15 15 14 14 14 14 13 13 13 12 12 13 13 13 15 14 14 15 15 16 14 13 13 13 14 15 15 15 15 15 13 12 13 13 13 13 13 14 13 13 14 13 13 14 16 17 17 15 15 16
29 30 30 29 28 26 27 27 26 24 24 23 22 22 22 21 20 19 19 19 18 18 18 18 18 17 17 16 16 16 16 17 16 16 16 15 15 14 14 13 14 13 13 12 12 12 12 13 13 14 14 14 14 14 14 13 13 13 13 14 15 15 15 15 14 13 12 12 13 13 13 13 13 12 13 14 13 13 14 14 15 15 15 15 14
30 31 31 29 27 26 27 27 26 24 24 23 22 22 21 20 20 19 19 18 18 18 18 17 18 18 17 17 16 16 16 16 16 16 15 15 15 15 14 13 13 13 13 12 12 12 12 13 13 13 14 14 14 14 14 13 13 13 13 14 14 14 14 14 13 13 12 13 13 13 14 14 13 13 14 14 13 13 13 13 13 14 14 14 13
32 32 31 29 27 26 27 27 25 24 24 23 23 22 20 20 19 19 18 18 18 18 18 18 18 18 17 17 16 16 16 16 15 16 15 15 15 14 14 14 13 13 13 12 12 12 12 12 12 13 14 15 14 14 14 13 12 12 13 13 13 13 13 13 12 12 13 13 14 14 14 14 13 13 13 14 13 13 13 12 12 12 12 13 12
33 32 30 29 27 26 27 26 25 25 24 23 23 21 21 20 19 19 18 18 17 17 18 18 18 18 17 17 16 15 15 15 15 15 15 15 14 14 14 14 14 13 13 13 13 12 12 12 12 13 14 14 14 14 14 12 11 12 13 12 12 12 12 12 11 11 12 13 14 15 15 15 14 13 13 13 13 13 13 12 12 12 11 12 12
34 33 30 28 27 27 27 26 25 25 24 23 23 22 21 20 19 18 18 18 17 17 17 18 18 18 18 17 16 16 16 16 15 15 15 15 14 14 14 14 14 13 13 13 13 12 12 12 12 13 13 13 14 14 14 12 12 13 12 12 11 11 11 11 11 11 12 13 14 14 15 15 14 14 14 13 13 12 12 12 12 12 12 12 11
33 32 30 28 27 27 28 26 25 24 23 23 22 22 21 20 19 18 18 18 17 17 17 18 18 18 18 17 17 16 16 16 16 16 15 15 15 14 14 14 14 14 13 13 13 13 12 12 12 12 13 13 13 14 14 12 12 12 12 12 12 11 10 10 11 12 12 13 13 14 14 14 13 13 13 13 13 13 13 12 12 12 12 11 11
33 31 29 28 28 28 28 27 25 24 23 23 22 21 20 20 19 18 18 17 17 17 17 18 18 18 17 17 17 16 16 16 16 16 15 15 15 15 15 14 14 14 14 13 13 13 12 12 12 12 13 13 13 13 14 13 11 10 11 11 11 10 10 10 11 12 12 12 13 14 14 13 13 13 13 13 13 13 13 12 11 11 11 11 11
31 31 29 29 28 29 29 27 26 26 24 23 22 21 20 20 19 18 18 17 17 17 17 18 18 17 17 17 16 16 16 15 15 15 15 15 15 15 14 14 14 14 13 13 13 13 13 13 13 13 13 13 13 13 14 13 11 10 11 11 11 11 10 10 10 11 12 12 13 14 14 13 12 12 13 13 13 13 13 12 12 11 11 10 10
30 30 29 29 29 29 29 28 27 26 25 24 23 22 20 19 19 18 17 17 17 17 17 17 17 17 16 16 16 16 16 15 15 15 14 15 15 15 14 14 14 13 13 12 12 12 13 14 14 13 13 13 14 13 13 13 12 11 11 10 11 11 11 10 10 10 11 12 12 13 14 13 12 12 12 13 13 13 13 12 12 11 11 10 10
28 29 29 29 29 29 30 29 28 27 26 24 24 22 21 19 19 18 17 17 17 17 16 16 16 16 16 16 16 16 15 15 15 14 13 13 14 14 14 13 13 13 12 12 12 11 11 12 13 13 13 13 14 14 13 13 14 12 11 11 12 11 10 9 9 9 10 12 12 13 13 13 12 12 12 12 12 12 12 12 12 11 11 11 10
28 28 29 30 29 30 30 29 29 28 26 25 25 23 21 20 20 18 18 17 17 16 16 16 16 16 16 15 14 14 14 13 13 13 12 12 13 13 12 12 12 12 12 11 11 11 11 10 10 11 12 13 14 15 14 13 14 13 11 11 12 10 9 9 9 9 9 11 12 13 14 13 12 12 12 11 12 12 12 12 11 11 11 11 11
29 28 29 30 30 31 30 30 30 29 27 26 26 24 22 21 20 19 18 18 16 16 17 16 16 15 14 14 13 12 12 12 12 11 10 11 12 12 11 11 12 11 11 11 11 11 10 10 9 9 10 12 13 15 15 13 13 13 12 12 12 11 9 8 8 9 9 11 13 14 13 12 12 12 11 11 11 12 12 11 11 11 11 11 11
30 29 30 30 31 32 31 31 30 29 28 27 26 25 23 22 21 19 18 18 17 16 16 16 15 14 13 12 12 11 10 10 11 9 9 10 11 12 12 11 11 10 10 11 11 10 9 10 10 10 10 10 11 12 13 13 13 13 13 13 12 11 9 7 8 8 9 11 12 13 13 12 12 12 11 11 10 11 11 11 11 10 10 11 11
30 29 29 30 32 33 32 32 30 30 29 28 27 25 24 22 21 19 18 18 17 16 16 16 15 13 12 11 10 10 9 9 10 8 8 9 11 12 12 11 10 10 9 9 9 9 9 10 11 11 10 10 9 9 11 11 12 12 12 13 13 12 10 7 8 8 10 12 12 13 13 13 12 12 11 10 10 10 10 10 10 10 10 10 10
29 29 29 32 34 33 33 32 31 30 29 28 27 26 25 23 22 20 19 18 17 17 16 15 14 13 12 11 10 10 10 10 10 9 7 7 9 12 12 11 9 9 9 8 8 9 10 11 11 11 10 9 7 7 8 8 9 10 10 11 13 13 10 9 9 9 11 12 13 13 13 13 12 11 10 10 9 9 10 10 9 9 9 9 9
29 29 30 32 34 34 33 33 31 30 29 29 27 26 25 24 22 21 20 19 18 17 17 16 15 13 12 12 11 10 11 11 11 10 8 7 8 10 10 10 9 8 9 8 8 9 10 10 9 9 8 8 6 5 5 4 6 8 9 10 12 13 11 10 10 10 11 12 13 13 13 13 12 11 10 9 9 9 9 9 9 8 8 8 8
29 28 30 32 33 34 34 34 32 31 30 29 28 27 26 24 23 21 20 19 18 18 17 16 15 14 12 11 11 11 11 12 12 10 9 8 7 8 8 9 9 8 8 8 9 10 10 9 8 7 6 6 5 4 3 2 3 5 9 12 12 14 13 11 10 10 11 12 13 13 13 13 12 11 10 9 9 8 8 8 8 8 7 7 7
29 29 30 32 33 34 34 34 32 31 31 30 29 27 26 25 23 22 20 19 18 17 16 15 14 13 12 11 11 12 12 13 12 11 10 9 8 8 8 8 8 8 8 9 9 9 9 8 7 6 5 5 4 5 4 2 2 1 7 14 15 15 14 12 12 11 11 12 13 13 13 12 12 11 10 9 8 8 8 8 8 8 7 7 7
30 30 31 33 33 33 34 34 33 32 31 31 30 28 27 26 24 22 20 18 16 15 15 14 14 13 13 12 11 12 11 12 13 11 11 10 9 9 8 8 8 8 8 9 9 9 8 7 6 5 5 4 3 5 5 4 3 2 2 13 17 16 15 13 12 11 11 12 13 13 13 12 12 11 11 10 9 8 8 8 8 8 8 8 8
31 30 32 33 33 33 34 34 33 32 32 32 31 29 28 26 24 21 19 17 15 15 14 14 13 12 13 12 12 12 10 12 13 12 12 11 10 10 10 8 8 9 8 8 9 8 8 7 6 5 5 4 4 6 6 6 4 4 3 9 17 17 16 15 12 12 11 11 12 13 13 12 12 11 11 10 9 9 8 8 8 7 8 8 8
32 32 33 34 33 34 35 34 34 33 31 32 32 30 28 26 23 20 19 17 15 15 15 15 14 12 13 13 13 11 10 12 14 13 13 13 11 11 10 9 9 9 8 8 9 8 8 7 5 4 4 4 5 6 7 6 3 4 5 3 14 18 18 16 13 12 11 11 12 12 12 12 12 11 11 10 10 9 9 8 8 7 7 7 8
32 33 33 34 34 35 35 34 34 34 32 31 31 31 29 25 22 20 19 18 16 17 16 15 15 13 14 14 12 11 10 12 13 14 14 14 12 12 11 10 9 9 8 9 9 8 8 6 4 4 4 4 4 5 8 6 3 4 6 3 10 19 20 17 14 12 11 10 11 11 12 12 12 11 11 10 10 10 9 9 9 8 8 8 8
31 32 33 34 34 35 35 34 35 34 32 31 29 30 29 26 23 21 19 18 18 18 17 17 16 15 16 15 14 14 12 11 13 15 15 13 12 11 10 10 10 9 8 8 8 6 6 5 5 4 4 4 3 4 7 5 3 3 6 6 5 16 21 18 15 13 10 10 10 11 11 11 11 11 11 10 10 10 10 10 9 9 9 8 8
31 33 34 35 34 35 35 34 35 35 33 32 29 29 29 28 25 23 21 19 20 20 18 18 17 16 17 17 17 16 13 12 14 15 14 13 12 12 11 10 10 9 8 7 6 5 5 5 5 5 4 4 3 4 5 4 3 2 5 7 2 13 22 20 16 13 10 10 11 10 10 10 10 10 10 10 10 10 10 10 10 9 9 9 9
34 34 35 36 34 34 36 35 36 36 34 32 30 27 29 29 26 25 23 20 21 20 18 19 18 17 18 20 19 17 15 15 15 14 14 13 13 12 11 10 10 10 9 7 6 5 5 5 5 5 4 3 2 2 4 3 3 1 5 6 4 15 22 20 17 14 12 12 11 10 9 9 9 9 8 9 9 10 10 10 10 10 9 9 9
36 35 35 37 35 34 36 35 37 38 35 33 30 27 29 29 26 26 25 22 22 21 19 19 19 18 19 21 21 18 17 18 16 15 14 14 13 13 12 11 10 10 9 7 7 5 5 6 6 5 4 3 3 3 4 4 2 2 6 6 6 16 21 20 18 15 14 13 12 10 9 9 9 9 8 7 8 9 10 10 10 10 10 10 10
37 36 36 38 36 35 35 35 37 38 36 33 31 28 29 29 26 26 26 23 22 22 20 20 19 18 19 21 20 17 18 20 19 17 15 14 13 13 13 11 11 11 10 8 8 6 5 6 6 5 4 3 3 3 4 4 3 3 5 6 9 15 20 20 19 16 15 14 13 11 9 8 8 8 7 7 6 7 8 9 10 10 9 9 10
37 37 37 37 36 35 35 34 37 38 37 33 30 29 29 28 27 27 26 23 22 22 22 20 19 19 19 19 18 15 17 21 21 19 16 15 13 13 14 13 12 11 10 9 9 7 6 6 7 6 5 3 4 5 4 4 3 3 5 9 13 16 19 21 19 18 16 15 13 12 10 9 8 8 7 7 6 6 6 7 8 9 9 10 10
37 38 38 38 36 35 34 34 37 38 37 33 30 31 30 28 28 28 26 24 24 23 24 22 19 21 20 18 18 15 15 19 22 21 19 17 14 14 14 13 13 12 11 11 10 8 6 7 8 8 7 5 6 6 4 3 3 2 2 7 12 16 19 20 20 18 17 15 14 13 12 10 9 8 8 7 6 6 5 5 6 8 8 9 8
36 38 39 39 37 36 35 35 37 38 38 35 32 33 33 30 30 29 28 27 26 24 25 25 22 22 22 20 18 16 15 18 21 21 21 19 16 14 13 13 12 12 11 10 9 8 7 7 8 8 8 7 8 7 6 5 4 3 2 3 8 14 18 18 19 19 18 16 14 14 13 12 11 9 8 7 7 6 6 5 5 6 7 7 7
36 39 40 41 39 37 37 36 37 39 40 38 35 35 35 34 32 31 30 29 28 26 26 26 23 22 24 22 18 17 16 17 18 20 22 21 18 16 14 13 12 12 11 10 8 8 8 9 9 8 8 8 8 8 9 8 5 4 4 2 3 8 11 13 17 19 19 17 15 14 15 14 13 11 10 9 7 7 6 6 6 5 5 6 6
37 39 40 41 40 38 37 37 38 39 40 39 36 35 36 35 34 32 32 30 29 27 25 25 23 22 25 24 20 19 18 18 17 18 22 23 20 18 16 14 12 12 12 12 10 9 9 10 11 9 9 9 9 10 11 8 6 6 5 2 1 2 3 6 13 17 19 19 17 16 16 15 14 12 11 10 8 8 7 6 7 6 5 5 5
36 38 39 40 39 39 39 39 39 39 40 40 37 35 34 34 33 32 32 30 28 27 25 24 23 23 25 26 24 22 20 19 18 17 20 23 22 20 18 15 14 13 13 13 12 11 11 11 11 10 9 10 10 10 11 9 7 7 5 2 1 2 1 4 8 11 14 19 20 18 17 16 15 14 13 10 9 9 8 7 7 6 5 5 5
37 38 40 41 40 40 41 40 40 40 40 40 38 35 33 32 30 28 27 26 26 27 27 26 24 23 25 26 26 25 23 21 20 18 19 22 23 21 19 17 16 14 14 13 12 12 12 12 12 10 10 11 11 11 11 11 9 9 7 3 2 2 2 3 4 5 9 15 20 21 18 17 17 16 14 11 10 9 8 8 7 6 6 5 5
38 41 43 42 41 41 42 41 41 40 41 41 39 36 34 34 31 28 28 26 26 28 31 30 27 25 26 26 25 25 25 23 21 19 18 20 23 23 21 19 17 16 15 13 12 12 13 13 12 11 11 11 12 11 11 12 11 10 11 9 4 1 3 3 3 2 3 8 16 21 21 19 19 18 16 14 12 10 9 9 8 7 6 6 5
39 42 42 42 41 41 41 42 41 40 41 41 40 38 36 36 35 33 32 30 29 30 33 33 30 27 26 27 26 25 26 25 23 21 19 19 21 22 23 22 19 18 16 14 14 13 13 13 13 13 12 12 13 13 13 13 13 12 11 12 8 2 4 5 5 3 1 3 10 18 21 20 21 20 19 17 15 13 12 11 9 8 7 7 5
39 40 41 41 42 42 42 42 42 41 41 42 42 40 38 38 37 34 33 32 32 31 32 33 31 27 25 27 28 27 27 27 25 22 20 20 21 22 23 23 22 20 18 16 15 14 13 13 14 14 13 14 14 13 14 13 14 14 12 11 8 3 5 7 8 7 4 2 4 9 15 19 22 22 20 18 17 15 13 12 10 8 8 8 7
39 40 41 42 42 43 43 42 41 41 41 42 43 43 41 40 38 35 33 32 33 32 32 33 32 29 26 26 28 29 30 29 26 23 21 20 21 22 22 23 22 21 19 17 16 14 14 14 15 15 16 16 14 13 14 14 14 15 14 12 9 5 4 5 7 8 6 5 3 4 9 13 16 22 23 20 17 16 14 13 11 9 8 8 8
39 41 41 41 41 42 42 41 41 41 41 43 44 43 42 39 38 37 35 32 32 32 31 32 33 31 28 27 28 30 31 30 28 24 22 21 21 22 22 23 22 21 19 18 17 16 15 15 15 16 16 17 15 14 14 15 14 15 13 13 12 9 6 5 5 6 7 7 5 5 11 13 11 18 23 22 20 18 16 14 13 11 10 9 8
38 39 39 39 40 40 41 42 42 41 42 43 44 43 42 40 40 39 38 35 33 32 31 32 33 33 31 29 29 30 31 31 29 26 24 23 22 22 22 23 22 21 20 19 18 17 16 16 16 16 17 16 16 16 16 16 16 16 14 14 15 13 9 7 6 8 7 6 6 6 12 15 12 15 21 22 22 20 18 17 15 13 12 11 10
Wind_Direction
149 146 144 143 141 136 133 133 132 130 124 124 122 120 119 118 118 116 116 116 117 117 118 118 118 119 118 118 118 118 118 117 118 118 119 121 122 123 124 124 124 124 123 122 122 121 119 117 114 110 106 103 104 106 106 107 114 118 116 115 113 108 105 106 107 107 106 106 106 107 107 109 111 112 114 115 116 118 119 116 112 111 111 110 109
149 147 144 143 141 138 137 135 134 132 127 126 124 122 121 120 120 119 119 117 118 118 118 118 119 119 119 120 120 120 119 119 119 120 122 122 123 124 124 125 125 125 125 124 124 123 119 115 111 109 106 103 102 105 106 109 114 115 114 115 112 106 106 107 108 106 106 106 105 105 104 106 109 111 112 115 117 116 116 115 114 114 114 114 112
147 148 146 146 143 140 138 135 135 134 130 128 126 124 123 123 123 122 121 120 120 119 119 119 119 120 121 120 119 119 120 120 120 121 123 124 123 123 126 127 126 126 126 126 125 123 118 113 109 108 107 105 103 103 108 112 114 118 118 116 113 110 110 108 108 107 106 105 105 106 102 102 109 114 114 116 119 118 117 116 115 117 117 116 113
148 149 149 148 144 141 138 135 136 135 133 131 127 126 126 126 124 123 122 120 120 118 119 119 120 121 120 119 118 118 120 121 121 123 123 125 125 123 125 127 127 129 129 128 127 123 118 113 110 108 108 108 105 106 111 113 114 119 119 115 115 114 111 109 108 107 106 107 108 107 101 99 105 112 116 117 118 118 118 117 117 120 120 117 114
149 149 149 146 144 142 138 137 137 137 137 132 129 128 128 127 125 124 122 121 119 118 119 120 120 120 119 119 118 118 119 120 121 125 126 127 127 125 126 128 129 131 130 129 126 123 120 116 113 110 110 111 107 108 112 115 117 118 117 116 117 116 114 112 110 108 108 111 111 107 101 99 102 107 113 117 117 117 118 120 121 121 118 115 112
150 151 150 146 145 143 140 140 139 139 138 134 131 130 129 129 127 125 123 121 120 120 120 120 120 119 119 119 118 119 119 118 122 126 128 129 128 127 129 130 130 131 130 129 126 125 123 119 116 113 112 113 111 111 113 117 119 119 119 118 117 116 115 112 110 111 111 111 111 107 102 99 100 104 111 117 116 116 118 120 120 117 114 112 110
150 151 151 148 146 144 143 142 140 140 139 135 134 132 132 130 128 126 124 122 122 122 121 120 120 119 119 121 121 121 121 120 123 124 125 126 126 126 129 129 128 129 130 130 129 128 125 122 120 116 114 116 116 117 119 120 119 118 119 117 116 116 114 111 111 112 109 108 110 108 104 101 100 103 111 115 116 117 118 119 116 114 113 111 110
150 151 151 149 147 145 144 142 141 142 140 138 136 134 133 131 128 126 125 124 124 124 123 122 120 120 120 121 121 120 121 122 124 125 124 123 121 123 127 127 125 127 129 130 130 127 126 125 121 118 117 118 121 123 124 123 118 117 118 116 115 117 116 114 115 114 108 107 109 108 106 105 102 103 109 112 115 117 118 118 115 113 112 110 109
150 150 151 150 147 146 144 143 142 143 142 139 137 136 134 131 129 128 127 127 127 125 124 123 121 121 121 121 121 121 123 125 128 129 130 128 125 127 129 126 123 124 126 128 128 126 125 124 122 120 119 121 125 128 127 123 117 113 114 115 115 117 116 115 118 115 109 109 109 107 107 107 105 105 108 110 113 118 119 118 115 112 111 110 109
150 150 152 149 147 147 145 144 144 144 143 140 139 138 135 132 131 131 130 129 128 126 125 124 123 122 122 122 121 123 124 125 128 129 130 129 128 129 127 124 122 123 123 124 124 124 123 122 123 123 121 122 126 129 127 122 114 110 112 116 117 116 115 115 118 115 110 109 108 106 105 107 108 107 108 110 114 117 117 117 115 110 109 110 110
150 151 151 149 149 148 145 145 146 146 144 142 141 139 136 134 134 133 131 130 128 127 126 125 125 124 123 122 122 123 123 123 124 125 126 126 125 125 123 122 122 121 120 119 120 120 119 120 122 123 121 122 126 128 126 120 114 112 113 117 119 117 116 118 120 118 113 110 110 110 107 106 108 111 113 112 114 115 113 115 114 110 110 110 109
151 152 152 151 151 148 146 148 148 147 146 145 143 140 138 137 136 135 133 131 129 127 127 126 125 124 123 123 124 123 123 124 123 124 125 123 122 122 121 119 118 118 118 117 117 117 118 118 119 123 122 122 125 126 123 118 115 113 113 117 120 119 119 121 124 122 115 110 112 114 113 109 107 113 118 116 115 115 111 113 112 111 113 112 112
153 153 153 151 150 148 148 150 150 149 148 146 144 141 140 139 138 135 134 131 129 128 127 127 126 125 125 124 124 124 123 122 121 121 120 119 119 120 119 116 116 115 116 116 115 114 115 117 119 121 119 121 125 125 122 117 114 112 112 117 122 124 125 127 126 120 114 112 113 114 115 112 109 109 114 115 113 113 111 110 111 114 115 115 117
154 154 153 151 150 150 151 152 152 150 150 147 145 143 142 141 139 137 135 132 130 129 129 128 127 125 125 124 123 122 120 119 117 117 116 116 116 116 117 116 116 115 115 115 114 112 111 114 117 117 117 121 126 126 123 119 116 115 115 118 122 127 132 134 131 122 116 117 116 115 114 113 115 113 113 115 115 118 116 115 115 117 117 117 120
155 154 153 153 152 152 153 155 154 153 152 149 147 146 144 143 141 139 136 134 133 131 131 128 126 125 124 124 123 122 119 118 117 117 117 117 117 116 116 115 116 116 116 115 113 112 110 111 112 114 117 122 128 130 129 125 119 119 121 120 123 127 134 140 139 130 122 121 120 117 115 114 117 118 117 117 119 121 120 121 121 120 119 120 121
156 155 153 154 154 153 155 157 156 155 154 152 150 149 147 145 142 141 138 137 136 134 132 129 126 124 124 124 123 123 121 120 119 119 119 118 119 118 117 116 116 116 115 114 112 110 110 111 111 113 117 122 129 134 135 131 122 122 124 124 126 127 134 142 142 137 129 127 125 121 118 117 118 118 117 117 118 121 123 125 125 125 123 124 126
157 155 154 155 155 155 157 159 158 156 156 155 153 153 150 148 146 143 141 140 139 137 135 131 127 125 124 124 124 124 123 122 121 121 120 120 119 119 119 118 117 116 115 113 111 111 111 111 112 113 115 120 129 137 141 134 123 125 126 127 130 127 133 142 140 139 136 133 131 127 123 122 122 120 119 118 117 118 122 125 126 127 127 128 130
157 157 156 157 157 158 160 160 160 159 158 158 157 156 154 152 150 147 146 144 143 141 136 131 128 127 126 125 124 124 123 123 124 122 120 119 119 119 118 116 115 114 113 112 112 112 114 114 114 113 114 119 128 137 142 136 123 122 124 129 134 131 134 142 142 141 141 139 138 135 130 129 128 125 123 121 119 118 119 121 123 125 128 131 133
157 158 158 159 160 161 162 162 163 162 161 161 160 160 158 157 154 152 151 148 147 143 138 133 130 130 128 127 125 124 123 123 124 122 120 119 118 117 115 114 112 111 110 109 109 109 110 112 114 114 115 120 127 134 138 136 127 122 123 129 138 137 137 146 145 142 143 144 145 142 137 136 134 131 128 125 122 121 121 122 122 122 124 129 134
158 160 161 163 163 163 164 165 166 165 164 163 162 163 162 160 158 157 156 154 151 146 141 137 134 133 132 132 130 127 126 125 123 122 121 120 119 118 117 115 113 111 109 108 106 103 103 105 109 114 116 120 127 132 134 135 129 125 124 127 138 140 141 147 144 140 144 149 152 149 144 142 140 137 134 131 128 127 126 126 125 123 122 123 128
160 163 164 165 165 165 166 168 168 167 167 165 165 165 164 163 161 161 160 159 156 150 145 141 139 139 138 137 133 129 128 128 125 122 124 124 124 122 120 118 117 116 113 110 107 102 100 100 103 110 116 121 129 133 136 136 130 130 130 130 139 144 146 146 141 140 147 154 158 155 151 148 146 144 140 137 135 133 130 129 128 125 121 118 121
162 165 168 169 168 168 169 170 171 170 169 168 168 166 166 167 164 164 164 163 160 154 151 148 146 144 142 139 135 129 127 127 123 122 126 126 127 127 125 123 122 121 118 114 110 106 103 102 102 108 118 123 131 136 138 138 137 139 138 139 146 153 155 146 141 145 151 156 161 160 156 154 152 149 146 144 140 137 134 132 130 127 124 120 119
164 168 170 172 171 171 172 173 173 173 172 171 169 167 169 169 166 167 167 166 164 159 154 152 151 148 145 141 136 131 128 125 119 118 124 128 129 130 131 128 126 123 119 116 113 110 106 106 108 109 115 122 131 137 141 143 145 147 146 148 155 163 164 154 148 150 154 157 160 161 159 159 158 155 153 150 144 139 136 134 130 128 126 124 122
168 170 171 174 175 174 174 175 176 176 176 174 171 170 172 171 169 170 170 169 167 159 155 154 154 153 150 145 139 138 136 129 122 119 123 133 134 134 136 134 131 127 120 116 114 112 109 111 116 115 112 118 128 136 144 150 154 154 153 154 159 169 174 165 160 157 156 158 160 161 161 162 161 161 159 155 150 144 139 135 132 129 128 127 124
168 170 173 176 178 176 176 177 179 179 178 176 174 173 173 172 172 172 173 172 168 162 160 157 157 158 154 150 147 147 151 143 137 135 128 135 140 141 140 137 134 131 127 121 116 114 114 118 119 120 116 117 126 135 145 153 159 160 160 160 163 175 184 178 172 166 160 159 161 162 163 165 164 164 164 161 157 151 146 140 136 134 132 132 128
169 172 175 179 179 178 178 178 181 182 181 179 176 175 174 174 173 173 175 175 171 168 166 162 160 163 158 157 158 159 162 155 152 157 146 139 145 146 144 141 138 135 135 131 126 121 121 122 119 119 119 119 126 138 149 158 169 171 169 168 171 181 191 186 177 170 164 163 163 164 165 167 167 167 167 166 164 158 154 147 142 140 138 137 132
172 175 177 180 180 179 180 180 182 184 184 182 178 177 176 176 174 174 176 176 176 175 172 166 164 166 164 162 166 167 166 162 163 168 167 161 158 156 154 150 142 138 141 137 134 130 126 124 123 127 128 129 135 146 154 170 195 198 193 188 181 185 197 193 178 171 168 168 166 167 168 168 169 170 171 170 169 166 161 154 150 148 146 142 136
173 176 178 180 181 180 181 182 184 186 185 184 181 179 178 178 177 178 178 178 180 181 175 168 168 171 172 170 172 174 168 165 170 172 176 179 175 169 163 158 150 146 145 143 140 137 133 129 132 140 139 141 150 160 164 184 216 218 213 209 196 191 201 197 182 173 171 171 169 170 172 171 170 171 174 174 172 170 167 165 161 159 157 153 148
175 176 178 180 182 182 182 183 186 188 187 185 183 181 180 180 180 181 181 181 184 182 176 172 173 177 181 180 180 183 177 172 175 178 184 185 181 178 171 163 158 155 153 151 149 146 143 138 140 146 150 157 164 176 188 193 191 261 222 214 206 197 201 200 186 176 172 174 172 172 175 174 173 173 173 174 172 172 172 173 171 168 167 165 164
177 177 178 181 182 183 183 184 187 190 189 187 185 184 182 182 184 184 183 184 185 180 177 176 177 181 187 187 186 188 187 184 183 184 191 191 183 182 178 171 165 162 161 158 152 150 149 141 142 146 159 177 185 190 191 183 165 27 238 212 210 201 199 200 189 180 175 176 175 172 175 176 174 175 175 176 174 176 179 178 175 176 176 175 176
178 178 179 181 182 184 184 186 189 191 191 190 188 186 185 185 185 186 184 184 183 180 182 184 182 185 188 188 188 193 201 201 193 189 194 193 183 180 176 171 168 165 166 164 153 152 157 153 149 149 163 173 177 192 192 183 163 56 44 207 209 203 200 200 188 182 179 177 178 173 173 177 177 176 177 179 178 179 184 183 181 184 184 182 182
180 179 180 180 182 185 185 187 190 191 193 192 191 190 189 187 185 187 186 183 185 187 191 193 191 191 191 189 189 196 207 206 198 195 195 190 181 176 172 168 165 163 165 164 156 157 165 164 163 161 169 167 173 195 198 195 170 75 52 183 206 203 199 197 183 178 181 179 181 175 174 179 178 180 182 183 183 183 187 187 187 190 189 189 188
182 181 181 180 182 185 186 188 190 191 194 194 193 193 192 187 184 189 188 187 193 196 198 200 199 195 191 189 190 195 201 200 198 197 191 185 179 176 173 170 163 158 160 163 161 162 167 171 173 165 174 184 184 192 198 203 173 96 65 87 204 204 197 192 180 175 180 182 182 175 175 181 181 182 187 188 188 189 191 191 193 196 196 196 197
181 182 182 181 182 184 186 187 189 191 193 196 195 194 194 189 185 190 191 194 200 202 205 204 202 196 188 186 190 195 197 192 190 188 184 181 180 179 176 172 166 160 161 167 165 161 165 173 175 166 175 197 188 178 192 198 170 120 77 71 188 202 196 189 178 175 181 185 182 174 173 180 184 186 190 192 193 194 194 197 199 200 202 202 202
180 182 184 183 183 184 185 187 189 191 193 196 196 194 194 190 189 193 193 198 203 204 207 204 201 199 190 189 193 197 193 185 183 182 180 181 183 185 180 173 171 171 171 171 166 159 161 165 172 169 169 194 187 169 183 188 187 145 68 55 125 193 194 187 177 175 183 186 176 168 171 176 181 185 193 196 197 197 197 200 204 207 208 208 208
181 182 184 184 184 186 186 187 189 191 193 196 198 195 193 192 193 196 194 197 201 202 205 202 202 203 199 197 197 199 191 179 180 183 183 185 187 189 186 180 178 177 177 177 173 165 163 164 165 165 171 198 198 168 178 186 205 143 51 39 125 181 191 186 178 177 181 182 172 163 167 172 175 177 186 197 200 202 202 202 206 211 214 213 214
184 183 183 184 186 187 187 188 190 191 192 196 198 197 195 193 196 198 195 197 201 202 203 204 206 208 205 201 199 200 193 181 180 184 185 186 190 190 187 189 186 180 183 187 186 181 178 177 168 166 182 205 211 187 177 181 184 104 55 47 127 173 187 183 177 178 176 174 169 165 163 165 171 172 177 188 198 203 205 207 207 210 216 218 219
185 185 185 186 187 187 187 189 190 191 192 195 198 197 195 195 197 198 195 198 202 201 202 205 209 207 201 199 200 202 200 193 186 186 187 186 190 193 189 193 193 186 191 192 190 189 187 183 174 179 194 207 207 179 157 163 151 90 75 96 139 169 180 179 177 176 173 168 163 160 156 159 166 169 173 178 188 198 203 207 207 206 211 220 225
184 186 187 187 188 188 188 189 191 191 192 194 196 195 195 196 197 196 196 201 204 201 202 207 209 205 200 200 206 210 207 204 198 193 191 187 189 197 196 197 198 194 195 194 191 190 187 182 177 186 196 193 194 181 159 161 151 107 100 123 147 171 176 176 180 177 170 165 160 157 152 156 164 167 174 177 180 188 196 203 207 205 207 218 225
184 186 186 187 188 189 188 189 191 191 191 194 193 191 192 195 195 195 198 201 201 200 203 209 210 206 206 208 212 217 211 207 205 200 195 191 189 196 200 200 201 201 199 199 196 190 186 183 177 183 191 186 188 194 189 189 190 180 134 123 145 171 179 179 182 179 174 168 161 160 157 158 165 167 172 176 175 176 184 196 206 208 208 216 219
183 184 185 187 188 188 189 189 190 190 191 193 192 189 190 192 192 193 197 199 199 200 204 210 214 211 212 213 214 218 212 204 207 203 196 195 194 195 201 201 202 208 207 205 198 191 194 190 182 184 194 196 194 199 199 196 202 198 194 143 143 165 180 188 190 185 180 175 170 168 166 167 168 166 169 172 170 168 171 179 190 201 205 213 217
184 184 185 187 189 189 190 190 189 189 191 194 193 192 192 192 191 193 197 199 200 202 204 207 214 215 214 215 216 217 213 205 206 204 197 195 196 195 200 202 203 208 210 209 201 196 200 199 195 194 197 204 198 193 193 191 201 198 177 154 135 156 174 191 197 196 189 183 182 180 176 176 173 168 168 168 167 166 169 178 180 183 189 199 212
185 186 186 186 188 190 191 190 189 190 192 194 194 194 194 194 195 196 198 200 203 205 203 203 212 217 214 216 218 217 214 208 206 206 199 196 198 198 200 205 206 206 207 206 203 200 201 199 201 202 197 200 198 191 191 192 199 189 154 120 235 156 165 193 194 200 201 195 193 189 186 186 180 176 175 171 173 172 169 179 179 176 177 185 200
184 186 186 186 187 189 191 191 190 191 192 194 196 195 194 195 197 199 200 201 202 203 202 203 211 216 214 216 219 218 216 212 209 209 203 199 201 202 203 207 209 211 211 208 204 200 198 195 195 199 195 192 193 193 195 201 207 190 156 102 80 118 242 229 194 196 200 200 203 198 193 193 187 185 184 178 181 182 179 182 178 173 174 177 190
184 185 186 187 188 189 191 191 191 192 192 194 195 195 193 192 193 194 196 198 199 200 203 206 211 214 215 215 217 218 216 214 212 212 210 205 204 206 208 209 211 214 216 214 209 203 199 196 194 195 198 196 194 195 199 205 213 206 188 163 81 109 233 228 196 197 189 194 205 205 200 197 193 192 191 187 190 191 191 194 189 183 184 184 190
186 186 187 188 188 190 190 191 191 191 192 193 193 193 191 189 188 186 186 189 193 199 204 206 207 212 214 214 214 216 216 215 214 215 216 211 207 208 210 211 214 216 218 218 215 210 204 202 202 201 203 205 200 200 205 205 210 215 211 213 215 212 217 176 156 202 191 184 198 204 203 199 196 197 196 194 197 199 202 205 201 197 199 201 205
188 188 188 188 188 189 189 190 190 191 191 192 192 192 191 189 190 189 188 189 192 199 204 205 206 209 212 213 213 215 216 216 216 216 218 217 211 209 211 213 217 219 221 221 219 216 211 207 208 207 206 208 207 210 211 206 210 215 215 223 228 217 196 187 169 160 110 154 187 197 202 201 199 200 201 200 201 203 206 206 199 198 203 204 208
187 187 188 188 188 189 189 190 190 190 191 191 192 192 192 191 192 193 194 195 197 202 206 207 208 210 211 212 214 215 215 215 217 218 219 219 215 211 211 214 219 222 222 222 221 217 214 210 209 210 210 210 213 216 212 210 214 211 207 217 223 208 194 196 192 179 140 111 172 190 198 201 203 204 206 206 205 206 207 201 195 195 201 202 201
185 186 187 188 189 188 188 189 189 190 191 191 192 194 195 195 194 195 197 200 202 205 207 208 209 211 212 212 214 215 214 214 216 220 221 221 218 215 214 215 219 221 221 222 222 219 217 213 208 209 211 210 213 219 215 215 214 207 206 214 213 201 187 179 185 183 156 141 162 192 187 192 205 210 210 210 209 211 209 202 198 198 203 204 203
185 186 187 188 189 188 187 188 189 190 191 192 193 195 196 197 197 197 198 199 201 203 205 208 209 211 213 213 214 214 213 212 214 220 224 223 220 218 217 218 220 222 222 222 222 221 218 213 208 208 209 209 211 217 220 220 219 214 218 222 215 202 182 165 170 168 151 150 168 193 184 181 195 207 209 213 212 211 209 206 206 207 208 208 208
185 184 185 187 188 188 188 189 190 191 192 193 194 195 196 198 199 199 200 200 199 200 201 204 207 209 211 212 213 212 212 212 213 218 223 224 222 220 220 221 222 225 224 222 221 221 218 213 210 209 210 212 212 216 222 223 225 228 232 232 222 212 200 190 184 171 159 153 160 185 195 194 199 205 207 214 217 215 210 209 213 217 216 213 214
Height
816 817 819 820 822 822 823 824 825 826 826 827 827 827 827 827 827 828 828 829 829 830 830 831 832 832 833 833 834 834 835 835 835 835 834 835 835 836 836 837 838 839 839 839 840 840 840 839 839 838 838 838 838 837 837 837 837 837 837 838 839 839 840 840 841 841 842 842 842 843 843 843 843 843 843 843 843 843 843 843 843 843 843 844 844
815 817 819 820 821 822 824 824 826 827 827 828 828 829 828 829 829 829 830 830 831 831 832 832 833 833 834 834 835 835 835 835 835 835 835 835 836 837 837 838 839 840 840 840 841 841 840 840 840 839 839 839 838 838 838 838 838 838 839 839 839 840 841 841 842 842 842 843 843 844 844 844 844 844 844 844 843 844 844 843 844 844 844 845 846
814 818 819 820 821 823 824 825 827 827 828 829 829 830 830 830 830 831 831 832 832 832 833 833 834 834 835 835 836 836 836 836 836 836 836 836 837 838 838 839 839 840 841 841 841 841 841 840 840 840 840 840 840 839 839 839 839 840 840 840 841 841 842 842 842 843 843 844 844 844 844 844 844 844 844 844 844 845 845 845 845 845 845 846 847
815 817 819 821 822 823 825 826 827 828 829 830 831 831 831 832 832 832 832 833 833 834 834 834 835 835 836 836 837 837 837 837 837 837 837 837 838 838 839 840 840 841 841 841 841 841 841 841 841 841 841 841 841 840 840 841 841 841 841 841 842 842 843 843 843 844 844 844 845 845 845 845 844 845 845 845 845 846 846 846 846 846 847 847 847
816 818 819 821 822 824 825 827 828 829 830 831 831 832 832 833 833 834 834 834 834 835 835 836 836 836 837 837 837 838 838 839 838 838 838 838 838 839 840 840 841 841 841 841 841 842 842 842 842 842 842 842 842 842 842 842 842 842 842 843 843 843 844 844 844 845 845 845 845 845 845 845 845 846 846 846 846 847 847 848 848 848 848 848 849
816 818 820 822 823 825 826 828 829 830 831 831 832 833 833 834 834 834 835 835 836 836 836 837 837 837 838 838 839 839 840 840 839 839 839 839 840 840 841 841 841 842 842 842 842 842 842 843 843 843 843 843 843 843 843 843 844 844 844 844 844 844 845 845 846 846 846 846 846 846 846 846 846 847 847 847 848 848 848 849 850 850 850 850 850
816 819 821 822 824 826 827 829 830 831 831 832 833 834 834 834 835 835 836 836 837 837 837 838 838 838 839 839 840 840 841 841 840 839 839 840 841 841 841 842 842 842 842 842 842 843 843 843 844 844 844 844 844 844 844 844 845 845 845 845 845 846 846 847 847 847 847 847 847 847 847 847 848 848 848 848 849 849 849 850 851 851 851 851 851
817 820 821 823 825 826 828 829 831 832 832 833 834 834 835 835 836 836 837 837 838 838 839 839 839 839 840 840 840 841 842 842 842 841 841 841 841 842 842 843 843 843 843 843 843 843 844 844 844 845 845 845 845 845 845 846 846 846 846 846 847 847 848 848 848 848 848 849 849 849 849 849 849 849 850 849 850 850 851 851 851 852 853 852 852
818 820 822 824 825 827 829 830 831 832 833 834 835 835 836 836 837 837 838 838 839 839 840 840 840 840 840 841 841 842 843 843 843 843 843 842 843 843 843 844 843 844 843 843 843 844 844 844 845 845 846 846 846 846 847 847 847 847 847 848 848 848 849 849 849 850 850 850 850 850 850 850 850 851 851 851 851 852 852 852 852 853 853 853 853
819 820 823 824 826 828 829 831 832 833 834 835 835 836 836 837 838 838 839 839 840 840 840 841 841 841 841 842 842 843 843 844 844 844 844 844 844 844 844 844 844 844 844 844 844 844 844 845 846 846 847 847 847 848 848 848 848 849 849 849 849 850 850 850 851 851 851 851 851 851 851 851 852 852 852 852 853 853 853 853 853 854 854 854 855
819 821 823 825 827 829 830 832 833 834 835 836 836 837 837 838 839 839 840 840 841 841 841 841 842 842 842 843 843 844 844 844 845 845 845 845 845 845 845 845 845 845 845 845 845 845 846 846 847 847 848 848 849 849 849 849 849 850 850 850 851 851 851 852 852 852 852 852 852 852 853 853 853 853 853 854 854 854 854 854 854 855 855 856 856
820 822 824 826 828 830 831 832 833 835 835 836 837 837 838 839 840 840 840 841 841 842 842 842 843 843 843 844 844 844 845 845 845 845 846 846 846 846 846 846 846 846 846 846 846 847 847 847 848 848 849 849 849 850 850 850 850 851 851 851 852 852 852 852 852 853 853 853 853 853 854 854 854 854 854 855 855 855 855 855 856 856 857 857 857
820 823 825 827 828 830 831 833 834 835 836 837 838 838 839 840 841 841 841 842 842 842 843 843 843 844 844 844 845 845 845 845 845 846 846 846 847 847 847 847 847 847 847 847 848 848 848 848 849 849 849 850 850 851 851 851 852 852 852 852 853 853 853 853 853 853 854 854 854 854 855 855 855 856 856 856 856 857 857 857 857 857 858 858 858
820 823 825 827 829 831 832 834 835 836 837 838 839 839 840 841 841 842 842 842 843 843 843 844 844 844 845 845 846 846 846 846 846 846 847 847 847 847 847 848 848 848 848 848 849 849 849 849 849 850 850 850 851 851 852 852 852 853 853 853 853 854 854 854 854 854 855 855 855 855 855 856 856 857 857 857 857 857 858 858 858 858 859 859 860
820 823 825 828 829 832 833 834 835 837 838 838 840 840 841 841 842 842 843 843 844 844 844 845 845 845 846 846 846 847 847 847 847 847 848 848 848 848 848 849 849 849 849 849 849 850 850 850 850 851 851 851 852 852 853 853 853 854 854 854 854 855 855 855 855 856 856 856 856 856 856 857 857 857 858 858 858 858 858 859 859 859 860 860 861
821 823 826 828 830 832 834 835 836 837 838 839 840 841 842 842 843 843 844 844 844 845 845 845 845 846 846 847 847 847 848 848 848 848 848 848 849 849 849 850 850 850 850 850 850 850 851 851 851 851 852 852 852 853 853 854 854 855 855 855 856 856 856 856 856 857 857 857 857 858 857 858 858 858 859 859 859 859 859 860 860 860 861 861 862
822 824 826 828 830 832 834 835 837 838 839 840 841 841 842 843 844 844 844 845 845 846 846 846 846 847 847 848 848 848 848 848 849 849 849 849 850 850 850 851 851 851 851 851 851 851 852 852 852 852 853 853 853 854 854 855 855 855 856 856 856 857 857 857 857 858 858 858 858 859 858 859 859 859 859 860 860 860 860 861 861 861 862 862 863
823 825 827 829 830 832 834 835 837 838 839 840 841 842 843 843 844 844 845 845 846 846 846 847 847 848 848 848 849 849 849 849 850 850 850 850 850 851 851 851 852 852 852 852 852 852 853 853 853 853 854 854 854 855 855 856 856 856 856 856 857 857 858 858 858 858 858 859 859 859 859 860 860 860 860 861 861 861 861 862 862 862 863 863 863
824 826 827 829 830 832 834 835 837 838 839 840 841 842 843 844 844 845 845 846 846 847 847 847 848 848 849 849 849 849 850 850 850 851 851 851 851 852 852 852 852 852 853 853 853 853 853 853 854 854 854 855 855 855 856 856 856 857 857 857 858 858 858 858 859 859 859 859 860 860 860 861 861 861 861 861 862 862 862 863 863 863 863 864 864
825 826 827 830 830 832 833 835 837 838 839 840 841 842 844 844 845 846 846 847 847 847 848 848 849 849 849 850 850 850 851 851 851 851 852 852 852 852 853 853 853 853 853 853 854 854 854 854 854 855 855 855 856 856 857 857 857 857 858 858 858 859 859 859 859 859 860 860 860 860 861 861 862 862 862 862 862 863 863 863 864 864 864 864 865
825 826 828 829 830 832 833 835 836 838 839 840 841 842 843 844 845 846 846 847 847 848 848 848 849 849 850 850 850 851 851 851 851 852 852 852 853 853 853 853 854 853 854 854 854 854 854 855 855 855 856 856 856 857 858 858 858 858 858 858 859 859 859 859 859 860 860 860 861 861 861 862 862 863 863 863 863 863 864 864 865 865 865 866 866
824 826 828 829 830 832 833 835 836 837 839 840 841 842 843 844 845 846 846 847 847 848 848 849 849 849 850 850 851 851 851 852 852 852 852 853 853 853 854 854 854 854 854 854 855 855 855 855 856 856 856 857 857 858 858 858 859 859 859 859 859 859 859 860 860 860 860 860 861 861 862 862 863 863 864 864 864 864 865 865 865 866 866 866 867
822 824 827 828 829 831 832 834 835 837 838 839 840 841 843 843 845 845 846 847 847 848 848 849 849 849 850 850 851 851 852 852 852 853 853 853 853 854 854 855 855 855 855 855 855 856 856 856 856 857 857 857 858 858 859 859 859 859 859 860 860 860 859 860 860 860 860 860 861 862 862 863 864 864 864 865 865 865 866 866 866 867 867 867 867
821 823 825 827 829 830 832 833 835 836 838 839 840 841 842 843 844 845 846 847 847 848 848 849 849 849 850 850 851 851 852 852 853 853 853 854 854 854 855 855 855 855 856 856 856 856 856 856 857 857 857 858 858 859 859 859 859 859 859 860 860 860 860 860 860 860 860 861 861 862 863 864 864 865 865 865 866 866 867 867 867 868 868 868 868
820 823 825 826 828 829 831 833 834 835 837 838 839 840 841 843 844 845 846 846 847 848 848 849 849 850 850 850 851 851 852 852 853 853 854 854 854 854 855 855 856 856 856 856 856 856 856 857 857 858 858 858 859 859 860 860 860 860 860 860 860 861 861 861 861 861 861 861 861 862 863 864 865 865 866 866 867 867 868 868 868 869 869 869 869
820 822 823 825 826 828 830 832 834 835 836 837 838 840 841 842 843 844 845 846 847 847 848 848 849 850 850 851 851 852 852 853 853 853 854 854 855 855 855 856 856 856 856 856 857 857 857 857 857 858 858 859 859 859 860 860 860 860 861 860 861 861 861 861 861 861 861 861 862 862 863 864 865 865 866 867 867 868 868 869 869 869 869 869 869
818 820 822 824 825 827 829 831 833 834 835 837 838 839 840 841 842 843 845 846 847 847 848 848 849 850 850 851 851 852 852 853 853 853 854 855 855 855 856 856 856 857 857 857 857 857 857 857 858 858 858 858 859 859 860 860 860 861 861 861 861 861 861 861 861 861 861 862 862 863 863 864 865 866 866 867 868 869 869 869 870 870 870 870 871
817 819 821 823 825 826 828 830 832 833 834 836 837 838 840 841 842 843 844 845 846 847 847 848 849 849 850 851 851 852 852 852 853 853 854 855 856 856 856 856 856 857 857 857 857 857 858 857 858 858 858 858 858 859 859 860 860 860 861 860 861 861 861 861 861 861 862 862 863 863 864 864 865 866 867 867 868 869 869 870 870 870 871 871 871
815 817 820 821 823 825 827 829 830 832 833 835 836 838 839 840 841 842 843 845 846 846 847 848 848 849 850 850 851 851 852 852 853 853 854 855 856 856 856 856 857 857 857 857 857 858 858 858 858 858 858 858 858 859 859 860 860 860 860 860 860 860 861 861 861 862 862 863 863 864 864 865 865 866 867 868 868 869 870 870 870 871 871 871 872
814 816 818 820 822 824 826 828 829 831 832 834 835 837 838 839 840 841 843 844 845 846 847 847 848 849 850 850 850 851 852 852 853 853 854 855 855 856 856 856 857 857 857 857 857 858 858 858 858 858 858 858 858 858 859 859 860 859 859 859 860 860 861 861 862 862 862 863 863 864 864 865 866 866 867 868 868 869 870 870 870 871 871 872 872
813 815 816 818 821 823 825 826 828 830 831 833 834 836 837 838 840 841 842 843 845 845 846 847 848 849 850 850 850 851 851 852 853 853 854 855 855 855 856 856 856 857 857 857 857 858 858 858 858 858 858 858 858 858 858 858 859 859 859 858 859 860 861 862 862 863 863 863 863 863 864 865 866 866 867 867 868 869 869 870 870 871 871 871 872
811 812 814 817 819 821 824 826 827 829 831 832 833 835 836 838 839 840 841 843 844 845 845 847 847 848 849 850 850 850 851 851 852 853 853 854 855 855 856 856 856 856 857 857 857 858 858 858 858 858 858 858 858 858 858 858 859 859 859 858 858 860 861 862 862 863 863 863 863 863 864 865 865 866 867 867 868 868 869 870 870 870 871 871 872
808 811 813 815 817 819 822 825 827 828 829 831 832 834 835 837 838 839 841 842 843 844 844 846 847 848 849 849 850 850 850 851 851 852 853 854 854 855 855 856 856 856 857 857 857 858 858 858 858 858 858 857 857 857 857 858 858 859 859 859 858 859 860 861 862 863 863 863 863 863 864 864 865 865 866 866 867 868 869 869 870 870 870 871 871
807 810 812 814 816 818 821 823 825 827 828 830 831 833 834 836 837 838 840 841 841 843 843 845 846 847 848 849 849 850 850 850 851 852 852 853 854 855 855 855 856 856 856 857 857 857 857 858 858 858 858 857 857 857 857 857 858 859 859 859 858 858 860 861 862 863 863 863 863 863 864 864 865 865 865 866 867 867 868 869 869 870 870 871 871
805 807 810 812 814 816 819 821 823 825 827 829 830 831 833 834 836 837 839 840 840 842 842 844 845 846 848 848 849 849 850 850 851 851 852 853 854 854 855 855 856 856 856 856 857 857 857 858 858 858 857 857 857 857 857 857 857 858 859 859 858 858 859 861 863 863 863 863 863 863 864 864 864 865 865 866 867 867 868 868 869 869 870 871 871
802 805 808 811 813 814 816 819 821 824 825 827 829 831 832 833 835 836 838 839 839 841 842 843 844 845 847 847 848 849 850 850 850 851 852 852 853 854 854 855 855 856 856 856 857 857 857 857 857 857 857 856 856 857 857 857 857 858 859 859 858 858 859 861 862 863 863 863 863 863 864 864 864 865 865 866 866 867 868 868 869 869 869 870 870
800 802 805 808 811 813 815 816 818 821 824 826 828 829 831 832 834 835 837 838 839 840 841 842 843 844 845 846 847 848 849 850 850 851 851 852 853 853 854 854 855 855 856 856 856 857 857 857 857 857 857 856 856 856 857 857 857 858 859 858 857 857 859 861 862 863 863 863 863 863 863 864 864 865 865 866 866 866 867 868 868 869 869 870 870
798 800 803 806 809 811 813 814 817 819 822 824 826 828 830 832 833 834 836 837 838 839 840 841 842 843 844 845 846 847 848 849 850 850 851 852 852 853 854 854 855 855 855 855 856 856 857 857 857 857 857 857 856 856 857 857 858 858 859 859 858 858 859 861 862 862 862 863 863 863 863 864 865 865 865 866 866 866 867 867 868 868 869 869 870
796 798 801 804 807 809 811 813 815 817 821 823 825 827 829 831 833 834 835 836 837 838 839 839 840 842 843 844 845 846 847 848 849 850 850 851 852 852 853 853 854 855 855 855 855 856 856 857 857 857 857 857 857 856 857 857 858 858 859 859 859 859 860 861 862 862 862 862 863 863 864 864 865 865 866 866 866 866 866 867 867 868 869 869 870
793 796 799 802 805 807 809 811 813 815 819 822 824 826 827 829 831 832 833 834 835 836 837 838 839 840 841 843 844 845 846 846 847 848 849 850 851 852 852 853 854 854 854 855 855 855 856 856 857 857 857 857 857 856 857 858 858 858 859 860 860 860 861 861 862 862 862 863 863 863 864 864 865 865 866 866 866 866 866 867 867 868 869 869 870
791 794 796 799 801 804 806 808 810 813 816 818 821 822 824 826 828 829 830 831 833 835 836 837 838 839 840 841 842 843 844 845 846 847 848 849 850 851 851 852 853 853 854 854 855 855 855 856 856 857 857 857 857 857 857 857 858 858 859 860 861 861 862 862 862 863 863 863 863 864 864 864 865 865 866 866 866 866 867 867 868 868 869 869 870
787 790 792 795 798 801 804 805 808 810 812 815 817 819 821 822 824 825 828 829 831 832 834 835 836 838 839 840 841 842 843 844 845 846 847 848 848 850 850 851 852 853 853 854 854 854 854 855 855 856 856 856 857 857 857 857 858 859 859 860 861 862 863 863 863 863 863 864 864 864 864 865 865 865 866 866 866 867 867 867 868 868 869 869 869
784 787 790 793 796 799 801 803 805 807 810 813 815 817 818 820 821 823 825 828 829 831 832 834 835 836 837 838 839 840 841 842 843 844 845 846 847 848 849 850 851 852 852 853 853 854 854 854 855 855 855 856 856 857 857 857 858 859 859 861 861 862 863 863 863 864 864 864 864 864 865 865 865 866 866 866 867 867 867 868 868 868 869 869 869
782 785 788 790 792 795 798 800 803 805 807 810 813 815 818 820 821 823 825 827 829 830 832 833 834 835 836 837 838 839 840 841 842 843 844 845 846 847 848 849 850 851 852 852 853 853 854 854 854 855 855 855 856 856 857 857 858 858 860 862 862 864 866 863 861 863 864 864 864 864 865 865 866 866 866 866 867 867 867 868 868 869 869 869 869
778 780 783 786 788 791 794 797 800 802 805 808 811 814 817 819 821 823 825 827 828 829 830 831 832 832 833 834 836 837 838 839 840 841 842 844 845 846 847 848 849 850 851 851 852 852 853 853 854 854 854 855 855 856 857 857 858 858 859 861 863 866 866 862 861 863 862 863 864 864 865 865 866 866 866 866 867 867 868 868 868 869 869 869 869
773 775 778 781 784 787 791 794 797 800 803 805 809 812 814 816 818 820 822 823 825 825 826 827 828 829 831 832 834 835 837 838 839 840 841 842 844 845 846 847 848 849 850 850 851 852 852 853 853 853 853 854 855 855 856 856 857 858 858 858 860 862 861 860 863 864 862 862 863 864 864 865 865 866 866 866 867 867 868 868 868 869 869 869 869
768 772 775 778 782 785 788 791 794 797 800 803 806 809 811 813 815 816 817 818 820 821 822 824 826 827 829 831 832 834 835 836 837 838 840 841 842 843 844 846 847 848 849 849 850 851 851 852 852 853 853 854 854 855 855 856 857 857 858 858 858 858 858 859 861 863 864 864 863 863 864 864 865 866 866 866 866 867 867 868 868 868 868 869 869
764 769 772 775 778 781 785 788 791 794 797 800 803 805 807 809 811 813 815 816 817 818 821 823 825 827 828 829 830 832 833 834 836 837 838 839 841 842 843 844 846 847 848 848 849 850 851 851 852 852 853 853 854 854 855 855 856 856 857 858 858 858 858 858 858 860 863 865 865 864 864 865 865 866 866 866 866 866 866 867 867 868 868 868 869
762 765 768 772 775 778 781 785 788 791 794 797 799 802 804 806 808 811 812 814 815 817 819 822 824 825 826 828 829 830 831 833 834 835 837 838 839 841 842 843 844 846 847 848 849 849 850 851 851 851 852 852 853 853 854 855 855 856 856 857 857 857 858 857 858 858 859 863 865 865 864 865 866 866 866 865 866 866 866 866 867 867 868 868 868
758 762 766 769 773 776 779 782 785 788 791 794 796 798 801 804 806 808 809 811 813 815 818 820 822 823 825 826 827 828 829 831 832 834 836 837 838 840 841 842 843 844 846 847 848 849 849 850 850 851 851 852 852 853 853 854 854 855 856 856 856 857 857 857 857 858 858 860 862 863 863 864 865 865 865 865 865 865 866 866 866 866 867 867 867
755 759 763 767 770 773 776 779 781 785 788 791 793 796 798 801 803 804 806 808 810 813 815 817 819 821 822 823 825 826 827 829 831 833 834 835 837 839 840 841 842 843 845 846 847 848 848 849 850 850 851 851 851 852 853 853 854 854 855 855 855 856 856 857 857 857 858 858 860 862 862 862 863 863 863 864 864 865 865 865 865 865 866 866 867